| time (UTC) | temp F | wind direction | speed MPH | gust MPH | rain 1hr in | rain 24hr in | rain mn in | humidity % | barometer mb |
| 20260510230018 | 97 | 259 | 3.0 | 9.0 | 0.00 | 0.00 | 0.00 | 23 | 1008.3 |
| 20260510225018 | 98 | 242 | 5.0 | 14.0 | 0.00 | 0.00 | 0.00 | 24 | 1008.3 |
| 20260510224017 | 98 | 240 | 4.0 | 9.0 | 0.00 | 0.00 | 0.00 | 24 | 1008.4 |
| 20260510223018 | 98 | 209 | 6.0 | 11.0 | 0.00 | 0.00 | 0.00 | 24 | 1008.4 |
| 20260510222018 | 98 | 218 | 4.0 | 11.0 | 0.00 | 0.00 | 0.00 | 25 | 1008.4 |
| 20260510221018 | 99 | 230 | 4.0 | 11.0 | 0.00 | 0.00 | 0.00 | 26 | 1008.5 |
| 20260510220017 | 99 | 253 | 4.0 | 11.0 | 0.00 | 0.00 | 0.00 | 23 | 1008.6 |
| 20260510215015 | 99 | 251 | 4.0 | 10.0 | 0.00 | 0.00 | 0.00 | 22 | 1008.7 |
| 20260510214015 | 98 | 242 | 4.0 | 11.0 | 0.00 | 0.00 | 0.00 | 25 | 1008.8 |
| 20260510213016 | 98 | 238 | 4.0 | 20.0 | 0.00 | 0.00 | 0.00 | 27 | 1008.9 |
| 20260510212055 | 98 | 226 | 5.0 | 11.0 | 0.00 | 0.00 | 0.00 | 28 | 1008.9 |
| 20260510211015 | 98 | 222 | 5.0 | 12.0 | 0.00 | 0.00 | 0.00 | 28 | 1008.9 |
| 20260510210015 | 99 | 227 | 6.0 | 14.0 | 0.00 | 0.00 | 0.00 | 28 | 1008.9 |
| 20260510205035 | 99 | 221 | 6.0 | 14.0 | 0.00 | 0.00 | 0.00 | 27 | 1008.9 |
| 20260510204036 | 100 | 226 | 4.0 | 11.0 | 0.00 | 0.00 | 0.00 | 27 | 1009.0 |
| 20260510203016 | 101 | 226 | 5.0 | 11.0 | 0.00 | 0.00 | 0.00 | 24 | 1009.1 |
| 20260510202015 | 102 | 240 | 5.0 | 11.0 | 0.00 | 0.00 | 0.00 | 22 | 1009.2 |
| 20260510201015 | 102 | 249 | 3.0 | 8.0 | 0.00 | 0.00 | 0.00 | 19 | 1009.3 |
| 20260510200015 | 102 | 274 | 3.0 | 10.0 | 0.00 | 0.00 | 0.00 | 21 | 1009.3 |
| 20260510195015 | 101 | 271 | 3.0 | 6.0 | 0.00 | 0.00 | 0.00 | 21 | 1009.3 |
| 20260510194015 | 100 | 267 | 3.0 | 8.0 | 0.00 | 0.00 | 0.00 | 20 | 1009.5 |
| 20260510193015 | 100 | 214 | 3.0 | 8.0 | 0.00 | 0.00 | 0.00 | 22 | 1009.5 |
| 20260510192015 | 100 | 222 | 4.0 | 11.0 | 0.00 | 0.00 | 0.00 | 23 | 1009.7 |
| 20260510191015 | 99 | 231 | 3.0 | 10.0 | 0.00 | 0.00 | 0.00 | 22 | 1009.9 |
| 20260510190015 | 98 | 229 | 4.0 | 9.0 | 0.00 | 0.00 | 0.00 | 24 | 1010.0 |
| 20260510185018 | 97 | 171 | 3.0 | 9.0 | 0.00 | 0.00 | 0.00 | 24 | 1010.2 |
| 20260510184017 | 97 | 171 | 3.0 | 8.0 | 0.00 | 0.00 | 0.00 | 24 | 1010.4 |
| 20260510183038 | 97 | 224 | 3.0 | 7.0 | 0.00 | 0.00 | 0.00 | 25 | 1010.5 |
| 20260510182017 | 97 | 186 | 2.0 | 7.0 | 0.00 | 0.00 | 0.00 | 27 | 1010.6 |
| 20260510181018 | 95 | 177 | 3.0 | 6.0 | 0.00 | 0.00 | 0.00 | 27 | 1010.6 |
| 20260510180018 | 95 | 170 | 2.0 | 7.0 | 0.00 | 0.00 | 0.00 | 28 | 1010.7 |
| 20260510175018 | 95 | 192 | 2.0 | 5.0 | 0.00 | 0.00 | 0.00 | 29 | 1010.7 |
| 20260510174017 | 94 | 156 | 3.0 | 8.0 | 0.00 | 0.00 | 0.00 | 30 | 1010.7 |
| 20260510173017 | 94 | 195 | 2.0 | 6.0 | 0.00 | 0.00 | 0.00 | 32 | 1010.7 |
| 20260510172017 | 93 | 171 | 2.0 | 4.0 | 0.00 | 0.00 | 0.00 | 33 | 1010.7 |
| 20260510171058 | 93 | 127 | 3.0 | 5.0 | 0.00 | 0.00 | 0.00 | 32 | 1010.8 |
| 20260510170018 | 93 | 161 | 3.0 | 5.0 | 0.00 | 0.00 | 0.00 | 31 | 1010.8 |
| 20260510165016 | 92 | 197 | 2.0 | 4.0 | 0.00 | 0.00 | 0.00 | 32 | 1010.7 |
| 20260510164018 | 93 | 356 | 2.0 | 5.0 | 0.00 | 0.00 | 0.00 | 31 | 1010.7 |
| 20260510163037 | 92 | 323 | 2.0 | 4.0 | 0.00 | 0.00 | 0.00 | 32 | 1010.8 |
| 20260510162018 | 91 | 51 | 1.0 | 3.0 | 0.00 | 0.00 | 0.00 | 33 | 1010.8 |
| 20260510161017 | 91 | 122 | 2.0 | 3.0 | 0.00 | 0.00 | 0.00 | 34 | 1010.8 |
| 20260510160018 | 90 | 117 | 1.0 | 3.0 | 0.00 | 0.00 | 0.00 | 34 | 1010.8 |
| 20260510155037 | 89 | 90 | 1.0 | 3.0 | 0.00 | 0.00 | 0.00 | 38 | 1010.8 |
| 20260510154059 | 87 | 90 | 1.0 | 4.0 | 0.00 | 0.00 | 0.00 | 41 | 1010.8 |
| 20260510153017 | 86 | 87 | 1.0 | 3.0 | 0.00 | 0.00 | 0.00 | 41 | 1010.8 |
| 20260510152038 | 84 | 85 | 2.0 | 5.0 | 0.00 | 0.00 | 0.00 | 46 | 1010.8 |
| 20260510151017 | 83 | 79 | 3.0 | 6.0 | 0.00 | 0.00 | 0.00 | 51 | 1010.7 |
| 20260510150018 | 82 | 94 | 3.0 | 7.0 | 0.00 | 0.00 | 0.00 | 54 | 1010.9 |
| 20260510145018 | 82 | 84 | 2.0 | 6.0 | 0.00 | 0.00 | 0.00 | 58 | 1010.7 |
| 20260510144017 | 81 | 55 | 3.0 | 5.0 | 0.00 | 0.00 | 0.00 | 59 | 1010.7 |
| 20260510143037 | 79 | 63 | 1.0 | 8.0 | 0.00 | 0.00 | 0.00 | 61 | 1010.8 |
| 20260510142037 | 79 | 78 | 2.0 | 6.0 | 0.00 | 0.00 | 0.00 | 61 | 1010.9 |
| 20260510141017 | 77 | 73 | 2.0 | 4.0 | 0.00 | 0.00 | 0.00 | 62 | 1010.8 |
| 20260510140037 | 77 | 36 | 2.0 | 7.0 | 0.00 | 0.00 | 0.00 | 62 | 1010.8 |
| 20260510135018 | 77 | 68 | 1.0 | 3.0 | 0.00 | 0.00 | 0.00 | 63 | 1010.7 |
| 20260510134017 | 76 | 57 | 2.0 | 5.0 | 0.00 | 0.00 | 0.00 | 64 | 1010.6 |
| 20260510133017 | 74 | 52 | 2.0 | 4.0 | 0.00 | 0.00 | 0.00 | 66 | 1010.6 |
| 20260510132018 | 73 | 72 | 2.0 | 4.0 | 0.00 | 0.00 | 0.00 | 66 | 1010.5 |
| 20260510131037 | 72 | 91 | 2.0 | 3.0 | 0.00 | 0.00 | 0.00 | 65 | 1010.5 |
| 20260510130017 | 71 | 70 | 2.0 | 3.0 | 0.00 | 0.00 | 0.00 | 64 | 1010.4 |
| 20260510125017 | 70 | 144 | 2.0 | 3.0 | 0.00 | 0.00 | 0.00 | 63 | 1010.3 |
| 20260510124018 | 70 | 81 | 1.0 | 3.0 | 0.00 | 0.00 | 0.00 | 62 | 1010.2 |
| 20260510123017 | 70 | 121 | 1.0 | 3.0 | 0.00 | 0.00 | 0.00 | 62 | 1010.1 |
| 20260510122019 | 70 | 61 | 1.0 | 2.0 | 0.00 | 0.00 | 0.00 | 62 | 1010.1 |
| 20260510121017 | 70 | 85 | 2.0 | 3.0 | 0.00 | 0.00 | 0.00 | 62 | 1010.0 |
| 20260510120038 | 70 | 89 | 1.0 | 3.0 | 0.00 | 0.00 | 0.00 | 65 | 1010.1 |
| 20260510115017 | 71 | 88 | 1.0 | 3.0 | 0.00 | 0.00 | 0.00 | 68 | 1010.0 |
| 20260510114018 | 71 | 109 | 1.0 | 2.0 | 0.00 | 0.00 | 0.00 | 74 | 1010.0 |
| 20260510113017 | 71 | 71 | 0.0 | 2.0 | 0.00 | 0.00 | 0.00 | 76 | 1009.9 |
| 20260510112017 | 72 | 62 | 0.0 | 2.0 | 0.00 | 0.00 | 0.00 | 78 | 1009.9 |
| 20260510111017 | 72 | 115 | 0.0 | 2.0 | 0.00 | 0.00 | 0.00 | 76 | 1009.9 |
| 20260510110017 | 72 | 0.0 | 0.0 | 0.00 | 0.00 | 0.00 | 76 | 1009.9 | |
| 20260510105018 | 72 | 0.0 | 1.0 | 0.00 | 0.00 | 0.00 | 75 | 1009.8 | |
| 20260510104017 | 72 | 115 | 0.0 | 2.0 | 0.00 | 0.00 | 0.00 | 75 | 1009.7 |
| 20260510103018 | 73 | 0.0 | 0.0 | 0.00 | 0.00 | 0.00 | 74 | 1009.6 | |
| 20260510102017 | 73 | 115 | 1.0 | 2.0 | 0.00 | 0.00 | 0.00 | 74 | 1009.6 |
| 20260510101016 | 73 | 0.0 | 2.0 | 0.00 | 0.00 | 0.00 | 74 | 1009.6 | |
| 20260510100017 | 73 | 0.0 | 1.0 | 0.00 | 0.00 | 0.00 | 74 | 1009.6 | |
| 20260510095038 | 73 | 115 | 0.0 | 2.0 | 0.00 | 0.00 | 0.00 | 73 | 1009.6 |
| 20260510094038 | 73 | 115 | 1.0 | 2.0 | 0.00 | 0.00 | 0.00 | 73 | 1009.5 |
| 20260510093018 | 74 | 115 | 0.0 | 2.0 | 0.00 | 0.00 | 0.00 | 74 | 1009.5 |
| 20260510092037 | 74 | 115 | 0.0 | 0.0 | 0.00 | 0.00 | 0.00 | 74 | 1009.4 |
| 20260510091017 | 74 | 115 | 0.0 | 2.0 | 0.00 | 0.00 | 0.00 | 74 | 1009.4 |
| 20260510090017 | 74 | 115 | 0.0 | 2.0 | 0.00 | 0.00 | 0.00 | 75 | 1009.5 |
| 20260510085017 | 74 | 0.0 | 0.0 | 0.00 | 0.00 | 0.00 | 75 | 1009.5 | |
| 20260510084018 | 74 | 0.0 | 0.0 | 0.00 | 0.00 | 0.00 | 76 | 1009.5 | |
| 20260510083017 | 75 | 0.0 | 1.0 | 0.00 | 0.00 | 0.00 | 76 | 1009.6 | |
| 20260510082018 | 75 | 115 | 0.0 | 2.0 | 0.00 | 0.00 | 0.00 | 74 | 1009.6 |
| 20260510081017 | 75 | 115 | 1.0 | 2.0 | 0.00 | 0.00 | 0.00 | 73 | 1009.7 |
| 20260510080017 | 75 | 115 | 0.0 | 2.0 | 0.00 | 0.00 | 0.00 | 75 | 1009.8 |
| 20260510075017 | 75 | 115 | 1.0 | 2.0 | 0.00 | 0.00 | 0.00 | 75 | 1009.9 |
| 20260510074057 | 75 | 0.0 | 0.0 | 0.00 | 0.00 | 0.00 | 75 | 1009.9 | |
| 20260510073037 | 75 | 115 | 1.0 | 2.0 | 0.00 | 0.00 | 0.00 | 75 | 1010.0 |
| 20260510072017 | 75 | 115 | 1.0 | 2.0 | 0.00 | 0.00 | 0.00 | 76 | 1010.0 |
| 20260510071017 | 75 | 139 | 1.0 | 2.0 | 0.00 | 0.00 | 0.00 | 77 | 1010.1 |
| 20260510070018 | 75 | 149 | 1.0 | 2.0 | 0.00 | 0.00 | 0.00 | 76 | 1010.1 |
| 20260510065017 | 76 | 154 | 0.0 | 2.0 | 0.00 | 0.00 | 0.00 | 75 | 1010.1 |
| 20260510064018 | 76 | 156 | 1.0 | 3.0 | 0.00 | 0.00 | 0.00 | 75 | 1010.1 |
| 20260510063018 | 76 | 168 | 1.0 | 3.0 | 0.00 | 0.00 | 0.00 | 74 | 1010.1 |
| 20260510062017 | 76 | 171 | 1.0 | 3.0 | 0.00 | 0.00 | 0.00 | 73 | 1010.2 |
| 20260510061018 | 76 | 163 | 1.0 | 5.0 | 0.00 | 0.00 | 0.00 | 73 | 1010.2 |
| 20260510060018 | 76 | 168 | 2.0 | 5.0 | 0.00 | 0.00 | 0.00 | 73 | 1010.3 |
| 20260510055017 | 77 | 190 | 1.0 | 4.0 | 0.00 | 0.00 | 0.00 | 73 | 1010.4 |
| 20260510054058 | 77 | 192 | 1.0 | 4.0 | 0.00 | 0.00 | 0.00 | 72 | 1010.5 |
| 20260510053058 | 78 | 188 | 1.0 | 3.0 | 0.00 | 0.00 | 0.00 | 71 | 1010.5 |
| 20260510052017 | 78 | 223 | 1.0 | 3.0 | 0.00 | 0.00 | 0.00 | 68 | 1010.5 |
| 20260510051017 | 79 | 218 | 1.0 | 3.0 | 0.00 | 0.00 | 0.00 | 64 | 1010.4 |
| 20260510050017 | 79 | 223 | 2.0 | 4.0 | 0.00 | 0.00 | 0.00 | 62 | 1010.3 |
| 20260510045017 | 79 | 181 | 1.0 | 2.0 | 0.00 | 0.00 | 0.00 | 57 | 1010.2 |
| 20260510044037 | 78 | 142 | 0.0 | 2.0 | 0.00 | 0.00 | 0.00 | 57 | 1010.2 |
| 20260510043017 | 78 | 108 | 1.0 | 2.0 | 0.00 | 0.00 | 0.00 | 56 | 1010.2 |
| 20260510042017 | 79 | 185 | 1.0 | 4.0 | 0.00 | 0.00 | 0.00 | 56 | 1010.0 |
| 20260510041017 | 79 | 197 | 2.0 | 5.0 | 0.00 | 0.00 | 0.00 | 57 | 1009.9 |
| 20260510040017 | 80 | 197 | 1.0 | 2.0 | 0.00 | 0.00 | 0.00 | 55 | 1009.9 |
| 20260510035037 | 80 | 192 | 1.0 | 3.0 | 0.00 | 0.00 | 0.00 | 53 | 1009.9 |
| 20260510034018 | 80 | 183 | 1.0 | 2.0 | 0.00 | 0.00 | 0.00 | 52 | 1009.8 |
| 20260510033017 | 81 | 216 | 0.0 | 2.0 | 0.00 | 0.00 | 0.00 | 53 | 1009.6 |
| 20260510032017 | 81 | 180 | 0.0 | 3.0 | 0.00 | 0.00 | 0.00 | 52 | 1009.4 |
| 20260510031037 | 81 | 192 | 1.0 | 3.0 | 0.00 | 0.00 | 0.00 | 51 | 1009.3 |
| 20260510030017 | 82 | 184 | 1.0 | 3.0 | 0.00 | 0.00 | 0.00 | 52 | 1009.3 |
| 20260510025037 | 82 | 203 | 1.0 | 4.0 | 0.00 | 0.00 | 0.00 | 50 | 1009.2 |
| 20260510024017 | 83 | 220 | 1.0 | 3.0 | 0.00 | 0.00 | 0.00 | 48 | 1009.1 |
| 20260510023017 | 84 | 210 | 1.0 | 3.0 | 0.00 | 0.00 | 0.00 | 46 | 1008.9 |
| 20260510022017 | 85 | 222 | 1.0 | 3.0 | 0.00 | 0.00 | 0.00 | 43 | 1008.7 |
| 20260510021017 | 86 | 220 | 1.0 | 3.0 | 0.00 | 0.00 | 0.00 | 39 | 1008.5 |
| 20260510020017 | 86 | 242 | 1.0 | 2.0 | 0.00 | 0.00 | 0.00 | 35 | 1008.4 |
| 20260510015017 | 87 | 253 | 2.0 | 5.0 | 0.00 | 0.00 | 0.00 | 34 | 1008.1 |
| 20260510014017 | 87 | 262 | 1.0 | 5.0 | 0.00 | 0.00 | 0.00 | 35 | 1008.0 |
| 20260510013017 | 88 | 265 | 2.0 | 8.0 | 0.00 | 0.00 | 0.00 | 34 | 1007.8 |
| 20260510012017 | 89 | 285 | 3.0 | 10.0 | 0.00 | 0.00 | 0.00 | 33 | 1007.8 |
| 20260510011017 | 90 | 260 | 3.0 | 8.0 | 0.00 | 0.00 | 0.00 | 34 | 1007.7 |
| 20260510010017 | 91 | 218 | 3.0 | 6.0 | 0.00 | 0.00 | 0.00 | 33 | 1007.5 |
| 20260510005018 | 91 | 227 | 3.0 | 8.0 | 0.00 | 0.00 | 0.00 | 33 | 1007.3 |
| 20260510004038 | 92 | 204 | 4.0 | 8.0 | 0.00 | 0.00 | 0.00 | 32 | 1007.4 |
| 20260510003018 | 92 | 227 | 3.0 | 9.0 | 0.00 | 0.00 | 0.00 | 31 | 1007.4 |
| 20260510002017 | 93 | 199 | 3.0 | 10.0 | 0.00 | 0.00 | 0.00 | 30 | 1007.3 |
| 20260510001017 | 93 | 220 | 5.0 | 11.0 | 0.00 | 0.00 | 0.00 | 29 | 1007.2 |
| 20260510000017 | 94 | 214 | 5.0 | 12.0 | 0.00 | 0.00 | 0.00 | 29 | 1007.1 |
| 20260509235018 | 94 | 235 | 4.0 | 12.0 | 0.00 | 0.00 | 0.00 | 30 | 1007.0 |
| 20260509234017 | 95 | 234 | 5.0 | 12.0 | 0.00 | 0.00 | 0.00 | 31 | 1006.9 |
| 20260509233017 | 96 | 238 | 4.0 | 10.0 | 0.00 | 0.00 | 0.00 | 30 | 1006.8 |
| 20260509232017 | 96 | 220 | 4.0 | 11.0 | 0.00 | 0.00 | 0.00 | 29 | 1006.8 |
| 20260509231017 | 97 | 223 | 5.0 | 11.0 | 0.00 | 0.00 | 0.00 | 27 | 1006.8 |